Flag for Germany Weather past 2 weeks in Solingen, North Rhine-Westphalia, Germany

Now
48 °F

Clear.


Feels Like: 45 °F
Forecast: 50 / 60 °F
Wind: 8 mph from Southeast

Location: Duesseldorf

Current Time: Sep 24, 2014 at 7:34:11 AM

Latest Report: Sep 24, 2014 at 7:20 AM


Visibility: 10 mi

Pressure: 29.95 "Hg

Humidity: 87%

Dew point: 45 °F

Location of SolingenLocation

Historic Weather in Solingen — Graph

°F

Solingen temperature yesterday

Maximum temperature yesterday: 63 °F (at 1:20 PM)
Minimum temperature yesterday: 45 °F (at 4:20 AM)
Average temperature yesterday: 53 °F

Past Weeks' High & Low Weather Summary

 TemperatureHumidityPressure
High77 °F (Sep 17, 2:20 PM)100% (Sep 9, 8:20 AM)30.24 "Hg (Sep 9, 8:20 AM)
Low45 °F (Sep 23, 4:20 AM)45% (Sep 23, 5:20 PM)29.83 "Hg (Sep 18, 4:50 AM)
Average61 °F78%30.04 "Hg
* Reported Sep 9 6:20 AM — Sep 24 6:20 AM, Solingen, Weather by CustomWeather, © 2014

Note: Actual official high and low records may vary slightly from our data, if they occured in-between our weather recording intervals... More about our weather records

Advertising

Solingen weather history for previous 24 hours

 ConditionsComfort  
Time TempWeatherWind HumidityBarometerVisibility
6:20 AM
Sep 24
48 °FPartly cloudy.7 mph87%29.95 "HgN/A
5:50 AM48 °FClear.8 mph87%29.95 "Hg10 mi
5:20 AM48 °FPassing clouds.10 mph87%29.98 "HgN/A
4:50 AM48 °FPassing clouds.9 mph87%29.98 "HgN/A
4:20 AM48 °FClear.10 mph87%29.98 "Hg10 mi
3:50 AM50 °FClear.9 mph82%30.01 "Hg10 mi
3:20 AM50 °FClear.8 mph82%30.01 "Hg10 mi
2:50 AM50 °FClear.9 mph82%30.01 "Hg10 mi
2:20 AM50 °FClear.9 mph82%30.04 "Hg10 mi
1:50 AM50 °FClear.7 mph82%30.04 "Hg10 mi
1:20 AM52 °FClear.8 mph77%30.04 "Hg10 mi
12:50 AM52 °FClear.7 mph77%30.04 "Hg10 mi
12:20 AM52 °FClear.7 mph77%30.07 "Hg10 mi
11:50 PM
Sep 23
52 °FClear.7 mph77%30.07 "Hg10 mi
11:20 PM52 °FClear.8 mph77%30.07 "Hg10 mi
10:50 PM52 °FClear.6 mph77%30.07 "Hg10 mi
10:20 PM52 °FClear.5 mph82%30.07 "Hg10 mi
9:50 PM52 °FClear.2 mph82%30.07 "Hg10 mi
9:20 PM52 °FClear.5 mph82%30.07 "Hg10 mi
8:50 PM52 °FClear.3 mph77%30.07 "Hg10 mi
8:20 PM52 °FScattered clouds.2 mph77%30.09 "HgN/A
7:50 PM55 °FScattered clouds.1 mph67%30.09 "HgN/A
7:20 PM57 °FScattered clouds.3 mph67%30.09 "HgN/A
6:50 PM61 °FScattered clouds.3 mph55%30.09 "HgN/A
6:20 PM61 °FScattered clouds.1 mph52%30.09 "HgN/A
5:50 PM61 °FPassing clouds.3 mph52%30.09 "HgN/A
5:20 PM63 °FPassing clouds.5 mph45%30.09 "HgN/A
4:50 PM63 °FPassing clouds.7 mph49%30.09 "HgN/A
4:20 PM63 °FPassing clouds.3 mph52%30.12 "HgN/A
3:50 PM61 °FScattered clouds.7 mph52%30.12 "HgN/A
3:20 PM63 °FScattered clouds.5 mph49%30.12 "HgN/A
2:50 PM61 °FScattered clouds.5 mph59%30.15 "HgN/A
2:20 PM61 °FScattered clouds.2 mph52%30.15 "HgN/A
1:50 PM61 °FScattered clouds.6 mph48%30.15 "HgN/A
1:20 PM63 °FPassing clouds.5 mph49%30.15 "HgN/A
12:20 PM59 °FPassing clouds.3 mph63%30.18 "HgN/A
11:50 AM57 °FPassing clouds.5 mph67%30.18 "HgN/A
11:20 AM55 °FScattered clouds.6 mph72%30.18 "HgN/A
10:50 AM55 °FScattered clouds.5 mph72%30.18 "HgN/A
10:20 AM52 °FPartly sunny.5 mph82%30.18 "HgN/A
9:50 AM52 °FPartly sunny.5 mph82%30.18 "HgN/A
9:20 AM50 °FSunny.6 mph88%30.18 "Hg10 mi
8:50 AM50 °FSunny.6 mph88%30.18 "Hg10 mi
8:20 AM50 °FPartly sunny.3 mph88%30.18 "HgN/A
7:50 AM48 °FPassing clouds.5 mph87%30.18 "HgN/A
7:20 AM48 °FPassing clouds.5 mph94%30.18 "HgN/A
Weather by CustomWeather, © 2014

See weather overviewHow to use our weather pages